sat.trackr.live / text

‹ back to catalog

STARLINK-35979

NORAD 66809 · 2025-278U

PAYLOAD ACTIVE UNKNOWN

§ Identity

Operator
Country
US
Launch date
2025-12-01
Launch site
AFETR
Launch vehicle
Mass (kg)
RCS (m²)

Purposes: comms

External: N2YO · Heavens-Above · Gunter

§ Orbital elements

Epoch: 2026-09-20T22:12:20.755872Z

Period
94.27 min
Inclination
43.0021°
Eccentricity
0.0000753
Mean motion
15.27581741 rev/d
Perigee alt
482.5 km
Apogee alt
483.6 km
Semi-major
6,861.2 km
B*
4.4892e-4
RAAN
92.1373°
Arg perigee
331.7616°
Mean anomaly
28.3195°
Rev number
4,506

§ Raw data

STARLINK-359791 66809U 25278U   26263.92524023  .00012112  00000+0  44892-3 0  99952 66809  43.0021  92.1373 0000753 331.7616  28.3195 15.27581741 45062

JSON: /api/v1/satellites/66809 · /tle

For live sub-satellite position, see the globe view (requires WebGL).

§ Visibility from observer

Set your observer location to see the next 7 days of passes ≥ 10°. The values pass through the URL so the page stays shareable.

No JS? Fill the form by hand. The geolocation button needs JavaScript.